Mumbai, India

3:25 AM IST on May 27, 2017 (GMT +0530)
Chhatrapati Shivaji International

Weather History for VABB - March, 2013

Change the Weather History Date:

Friday, March 22, 2013

  Actual Average Record
Temperature  
Mean Temperature 80 °F -  
Max Temperature 90 °F 89 °F 96 °F (2006)
Min Temperature 70 °F 74 °F 68 °F (1997)
Cooling Degree Days 15    
Growing Degree Days 30 (Base 50)    
Moisture  
Dew Point 71 °F    
Average Humidity 71    
Maximum Humidity 86    
Minimum Humidity 35    
Precipitation  
Precipitation 0.00 in - - ()
Sea Level Pressure  
Sea Level Pressure 29.77 in    
Wind  
Wind Speed 5 mph ()    
Max Wind Speed 16 mph    
Max Gust Speed 23 mph    
Visibility 2.7 miles    
Events      
Averages and records for this station are not official NWS values.
T = Trace of Precipitation, MM = Missing Value Source: Averaged Metar Reports

Daily Weather History Graph

Daily Weather History Graph

Search for Another Location

Airport or City:

Trip Planner

Search our weather history database for the weather conditions in past years. The results will help you decide how hot, cold, wet, or windy it might be!

Date:

Astronomy

Mar. 22, 2013 Rise Set
Actual Time 6:41 AM IST 6:50 PM IST
Civil Twilight 6:19 AM IST 7:11 PM IST
Nautical Twilight 5:53 AM IST 7:37 PM IST
Astronomical Twilight 5:28 AM IST 8:02 PM IST
Moon 2:25 PM IST (3/22) 2:47 AM IST (3/22)
Length of Visible Light 12h 52m
Length of Day
12h 08m
Waxing Gibbous, 73% of the Moon is Illuminated
Mar 22
Waxing Gibbous
Mar 27
Full
Apr 3
Last Quarter
Apr 10
New
Apr 18
First Quarter

Hourly Weather History & Observations

Time (IST) Temp. Heat Index Dew Point Humidity Pressure Visibility Wind Dir Wind Speed Gust Speed Precip Events Conditions
12:10 AM 78.8 °F - 71.6 °F 78% 29.80 in 2.5 mi WNW 4.6 mph - N/A   Haze
12:40 AM 78.8 °F - 71.6 °F 78% 29.80 in 2.5 mi Calm Calm - N/A   Haze
1:10 AM 78.8 °F - 71.6 °F 78% 29.80 in 2.5 mi NW 4.6 mph - N/A   Haze
2:10 AM 78.8 °F - 69.8 °F 74% 29.77 in 3.1 mi NW 5.8 mph - N/A   Haze
2:30 AM 77 °F - 70 °F 73% 29.78 in 1 mi Calm Calm - -   Haze
2:40 AM 78.8 °F - 71.6 °F 78% 29.77 in 3.1 mi NW 3.5 mph - N/A   Haze
3:10 AM 77.0 °F - 71.6 °F 83% 29.77 in 3.1 mi NW 4.6 mph - N/A   Haze
3:40 AM 77.0 °F - 71.6 °F 83% 29.77 in 3.1 mi NNE 5.8 mph - N/A   Mist
4:10 AM 77.0 °F - 71.6 °F 83% 29.77 in 3.1 mi North 3.5 mph - N/A   Mist
4:40 AM 77.0 °F - 71.6 °F 83% 29.77 in 2.5 mi North 4.6 mph - N/A   Mist
5:10 AM 77.0 °F - 71.6 °F 83% 29.77 in 2.5 mi NE 4.6 mph - N/A   Mist
5:30 AM 74 °F - 71 °F 86% 29.77 in 1 mi Calm Calm - -   Haze
5:40 AM 77.0 °F - 71.6 °F 83% 29.77 in 2.5 mi Calm Calm - N/A   Mist
6:10 AM 77.0 °F - 71.6 °F 83% 29.77 in 2.5 mi SE 4.6 mph - N/A   Partly Cloudy
6:40 AM 77.0 °F - 71.6 °F 83% 29.77 in 2.2 mi NE 4.6 mph - N/A   Partly Cloudy
7:40 AM 77.0 °F - 69.8 °F 78% 29.80 in 1.9 mi Calm Calm - N/A   Partly Cloudy
8:10 AM 77.0 °F - 69.8 °F 78% 29.80 in 1.9 mi ESE 4.6 mph - N/A   Haze
8:30 AM 78 °F - 69 °F 68% 29.82 in 1 mi 2.3 mph - -   Haze
8:40 AM 78.8 °F - 66.2 °F 65% 29.83 in 2.2 mi NE 3.5 mph - N/A   Haze
9:10 AM 80.6 °F 82.3 °F 64.4 °F 58% 29.83 in 2.5 mi Calm Calm - N/A   Smoke
10:10 AM 86.0 °F 84.9 °F 57.2 °F 37% 29.83 in 3.1 mi NE 3.5 mph - N/A   Smoke
10:40 AM 87.8 °F 86.5 °F 57.2 °F 35% 29.83 in 3.1 mi NW 4.6 mph - N/A   Smoke
11:10 AM 87.8 °F 88.5 °F 62.6 °F 43% 29.83 in 3.1 mi WNW 6.9 mph - N/A   Smoke
11:30 AM 88 °F - 66 °F 38% 29.81 in 1 mi West 4.6 mph - -   Smoke
11:40 AM 86.0 °F 88.2 °F 66.2 °F 51% 29.80 in 3.1 mi West 10.4 mph - N/A   Smoke
12:10 PM 86.0 °F 88.2 °F 66.2 °F 51% 29.80 in 3.1 mi WSW 10.4 mph - N/A   Smoke
12:40 PM 86.0 °F 89.4 °F 68.0 °F 55% 29.77 in 3.1 mi West 10.4 mph - N/A   Smoke
1:10 PM 84.2 °F 87.3 °F 68.0 °F 58% 29.77 in 3.1 mi West 11.5 mph - N/A   Smoke
1:40 PM 86.0 °F 90.4 °F 69.8 °F 58% 29.74 in 3.1 mi West 10.4 mph - N/A   Smoke
2:10 PM 87.8 °F 93.8 °F 71.6 °F 58% 29.74 in 4.3 mi WNW 8.1 mph - N/A   Unknown
2:30 PM 89 °F - 71 °F 47% 29.74 in 1 mi WNW 6.9 mph - -   Smoke
2:40 PM 86.0 °F 93.4 °F 73.4 °F 66% 29.74 in 5.0 mi West 9.2 mph - N/A   Unknown
3:10 PM 84.2 °F 90.9 °F 73.4 °F 70% 29.71 in 5.0 mi West 11.5 mph 23.0 mph N/A   Partly Cloudy
3:40 PM 86.0 °F 91.8 °F 71.6 °F 62% 29.71 in 5.0 mi WNW 11.5 mph - N/A   Partly Cloudy
4:10 PM 84.2 °F 90.9 °F 73.4 °F 70% 29.71 in - WNW 9.2 mph 20.7 mph N/A   Clear
4:40 PM 84.2 °F 90.9 °F 73.4 °F 70% 29.71 in - West 15.0 mph - N/A   Clear
5:10 PM 84.2 °F 90.9 °F 73.4 °F 70% 29.71 in 5.0 mi West 16.1 mph - N/A   Partly Cloudy
5:30 PM 85 °F - 75 °F 64% 29.72 in 1 mi NW 9.2 mph - -   Smoke
5:40 PM 82.4 °F 88.2 °F 73.4 °F 74% 29.71 in 5.0 mi West 13.8 mph - N/A   Partly Cloudy
6:10 PM 80.6 °F 86.2 °F 75.2 °F 84% 29.74 in 4.3 mi West 11.5 mph - N/A   Scattered Clouds
6:40 PM 80.6 °F 85.4 °F 73.4 °F 79% 29.74 in 3.7 mi WNW 12.7 mph - N/A   Scattered Clouds
7:40 PM 80.6 °F 85.4 °F 73.4 °F 79% 29.74 in 2.5 mi WNW 10.4 mph - N/A   Haze
8:10 PM 80.6 °F 85.4 °F 73.4 °F 79% 29.77 in 2.5 mi WNW 6.9 mph - N/A   Haze
8:30 PM 81 °F - 74 °F 73% 29.77 in 1 mi NW 5.8 mph - -   Haze
8:40 PM 80.6 °F 85.4 °F 73.4 °F 79% 29.77 in 2.5 mi NW 4.6 mph - N/A   Haze
9:10 PM 80.6 °F 85.4 °F 73.4 °F 79% 29.77 in 2.5 mi Calm Calm - N/A   Haze
9:40 PM 80.6 °F 85.4 °F 73.4 °F 79% 29.77 in 2.5 mi NW 6.9 mph - N/A   Haze
10:10 PM 80.6 °F 85.4 °F 73.4 °F 79% 29.77 in 2.5 mi NW 4.6 mph - N/A   Haze
10:40 PM 78.8 °F - 73.4 °F 83% 29.77 in 2.5 mi NW 5.8 mph - N/A   Haze
11:10 PM 78.8 °F - 73.4 °F 83% 29.77 in 2.5 mi West 4.6 mph - N/A   Haze
11:30 PM 78 °F - 74 °F 83% 29.78 in 1 mi North 3.5 mph - -   Haze
11:40 PM 78.8 °F - 73.4 °F 83% 29.77 in 2.5 mi WNW 4.6 mph - N/A   Haze